星链-1868 (STARLINK-1868 )

导读

STARLINK-1868是美国太空探索技术公司星链卫星互联网项目的成员,于2020年11月25日发射升空,属于星链低轨星座组网卫星之一,旨在为全球提供高速低延迟互联网覆盖,运行于近地轨道,依托一箭多星发射方式,是星链全球组网进程中的组成单元。

Basic Information
目录编号:
47154
目录名称:
STARLINK-1868
国际标识:
2020-088AJ
轨道中心:
EARTH
卫星名称:
星链-1868
卫星全名:
星链-1868 (STARLINK-1868 )
卫星状态:
已陨落 最后检测时间 2023-10-01
发射日期:
2020-11-25 UTC
国别 :
美国 (US)
星等 :
--
Orbit Information
数据来源 国际轨道数据
星历时间: 2023-10-02T00:31:57+0800
轨道信息已过期986天
半长轴: 6535.775km
偏心率: 0.0009019
轨道倾角: 53.042°
近地点辐角 56.695°
升交点赤经 239.399°
平近点角 65.487°
近地点: 151.745km
远地点: 163.535km
周期: 87.641分钟
每日圈数: 16.430743
Detailed Information
固有亮度:
5
最大亮度:
2.5
卫星平台:
Starlink V1.0
覆盖范围:
全球
运营商:
太空探索技术公司
运营商所在国:
美国
制造商(研发单位):
太空探索技术公司
制造商所在国:
美国
使用方式:
暂无
Satellite Introduction
星链(Starlink)计划是由太空探索技术公司(SpaceX)提出的一个巨型低轨卫星互联网星座项目,计划在2019年至2024年间在太空搭建由约1.2万颗卫星组成的“星链”网络,其中1584颗将部署在地球上空550千米处的近地轨道,并从2020年开始工作。该卫星已陨落。